Regional Weather Roundup
Issued by NWS

Home | Current Version | Previous Version | Text Only | Print | Product List | Glossary On
Versions: 1 2 3 4 5 6 7 8 9 10 11 12 13 14 15 16 17 18 19 20 21 22 23 24 25 26 27 28 29 30 31 32 33 34 35 36 37 38 39 40 41 42 43 44 45 46 47 48 49 50
000
ASUS44 KBMX 130310
RWRAL

ALABAMA REGIONAL WEATHER ROUNDUP
NATIONAL WEATHER SERVICE BIRMINGHAM AL
900 PM CST FRI FEB 12 2016

NOTE: "FAIR" INDICATES FEW OR NO CLOUDS BELOW 12,000 FEET
WITH NO SIGNIFICANT WEATHER AND/OR OBSTRUCTIONS TO VISIBILITY.

THE REMARK "TC" DENOTES TEMPERATURE IN DEGREES CELSIUS.

ALZ001>011-014-016>018-020-130400-
NORTH ALABAMA

CITY           SKY/WX    TMP DP  RH WIND       PRES   REMARKS
MUSCLE SHOALS  CLEAR     40  25  55 N8        30.35R WCI  34
HUNTSVILLE     CLEAR     40  25  55 N12G23    30.31R WCI  33
DECATUR        CLEAR     38  25  59 N14       30.33R WCI  30
HALEYVILLE     FAIR      38  26  62 N8        30.33R WCI  32
GADSDEN        CLEAR     46  28  49 NW12      30.26R
$$

ALZ012-013-022-023-030>036-040>044-130400-
WEST CENTRAL ALABAMA

CITY           SKY/WX    TMP DP  RH WIND       PRES   REMARKS
TUSCALOOSA     CLEAR     50  29  44 N15G24    30.29R
$$

ALZ015-024>027-033>036-040>044-130400-
CENTRAL ALABAMA

CITY           SKY/WX    TMP DP  RH WIND       PRES   REMARKS
BIRMINGHAM     CLEAR     47  29  49 NW15G23   30.28R
MONTGOMERY     CLEAR     56  33  42 NW13      30.22R
SHELBY CO ARPT CLEAR     50  29  44 NW8G20    30.24R
MAXWELL AFB    CLEAR     55  33  42 NW9       30.20R
GREENVILLE     FAIR      57  33  40 N9        30.21R
$$

ALZ019-021-028-029-037-038-045>048-130400-
EAST CENTRAL ALABAMA

CITY           SKY/WX    TMP DP  RH WIND       PRES   REMARKS
ANNISTON       CLEAR     50  27  40 NW10G21   30.22R
ALEXANDER CITY CLEAR     51  33  51 NW7       30.20R
AUBURN         CLEAR     54  32  43 NW12      30.18R
$$

ALZ051>064-130400-
SOUTHWEST ALABAMA

CITY           SKY/WX    TMP DP  RH WIND       PRES   REMARKS
MOBILE         PTCLDY    60  45  57 NW7       30.24R
BROOKLEY FIELD CLEAR     60  47  61 NW10      30.25R
EVERGREEN      CLEAR     51  42  71 N5        30.23R
$$

ALZ049-050-065>069-130400-
SOUTHEAST ALABAMA

CITY           SKY/WX    TMP DP  RH WIND       PRES   REMARKS
DOTHAN         CLEAR     57  36  45 NW9       30.20R
OZARK          CLEAR     57  39  50 NW9       30.18R
TROY           CLEAR     58  35  42 NW8       30.20R
EUFAULA        FAIR      59  36  42 NW8       30.16R
$$



USA.gov is the U.S. government's official web portal to all federal, state and local government web resources and services.